Location: Erp
(42.9417°N, 1.2009°E)
Time: 08:11:59
(UTC+00:00)

Cosmos 2366 rocket - Pass Details

Date: 12 January 2026
Orbit: 955 x 996 km, 82.9° (Epoch: 17 February)

Event Time Altitude Azimuth Distance (km) Brightness Sun altitude
Rises 17:44:46 0° 354° (N) 3,710 6.9 -11.2°
Reaches altitude 10° 17:47:19 10° 357° (N) 2,762 6.2 -11.6°
Maximum altitude 17:53:38 66° 80° (E) 1,078 4.0 -12.7°
Drops below altitude 10° 17:59:56 10° 163° (SSE) 2,753 6.4 -13.8°
Sets 18:02:28 0° 166° (SSE) 3,698 7.1 -14.3°
